[Iaude] MPEC V20: 2016 UC107 [a=2.00,e=0.59,i=2.1,H=25.7]

mpec at si.edu mpec at si.edu
Thu Nov 3 20:27:45 EDT 2016


M.P.E.C. 2016-V20                                Issued 2016 Nov. 4, 00:23 UT
 
     The Minor Planet Electronic Circulars contain information on unusual
         minor planets and routine data on comets.  They are published
    on behalf of Division F of the International Astronomical Union by the
          Minor Planet Center, Smithsonian Astrophysical Observatory,
                          Cambridge, MA 02138, U.S.A.

             Prepared using the Tamkin Foundation Computer Network

                              MPC at CFA.HARVARD.EDU
            URL http://www.minorplanetcenter.net/    ISSN 1523-6714


                                  2016 UC107
 
Observations:
     K16UA7C* C2016 10 30.24747 00 40 23.05 +01 42 33.7          20.7 VqEV020G96
     K16UA7C  C2016 10 30.25801 00 40 19.12 +01 41 30.0          20.1 VqEV020G96
     K16UA7C  C2016 10 30.26625 00 40 16.08 +01 40 40.3          20.2 VqEV020G96
     K16UA7C  C2016 10 30.27053 00 40 14.47 +01 40 13.8          20.7 VqEV020G96
     K16UA7C  C2016 10 30.31146 00 39 59.21 +01 36 03.1          20.3 VqEV020G96
     K16UA7C  C2016 10 30.31481 00 39 57.99 +01 35 42.6          20.5 VqEV020G96
     K16UA7C  C2016 10 30.31809 00 39 56.75 +01 35 21.7          20.7 VqEV020G96
     K16UA7C  C2016 10 30.32048 00 39 55.88 +01 35 07.7          20.9 VqEV020G96
     K16UA7C  C2016 10 30.34526 00 39 46.76 +01 32 33.4          21.0 VqEV020I52
     K16UA7C  C2016 10 30.34603 00 39 46.47 +01 32 28.7          21.0 VqEV020I52
     K16UA7C  C2016 10 30.34680 00 39 46.21 +01 32 23.9          20.7 VqEV020I52
     K16UA7C  C2016 10 30.34757 00 39 45.90 +01 32 19.1          20.7 VqEV020I52
     K16UA7C KC2016 10 30.49956 00 38 59.68 +01 19 43.8          20.6 RtEV020474
     K16UA7C KC2016 10 30.50075 00 38 59.26 +01 19 36.1          20.2 RtEV020474
     K16UA7C KC2016 10 30.50195 00 38 58.85 +01 19 28.7          20.3 RtEV020474
     K16UA7C KC2016 10 31.43138 00 33 06.84 -00 34 55.3          20.1 RtEV020474
     K16UA7C KC2016 10 31.43258 00 33 06.24 -00 35 05.2          19.7 RtEV020474
     K16UA7C KC2016 10 31.43378 00 33 05.65 -00 35 15.7          20.0 RtEV020474
     K16UA7C KC2016 10 31.43497 00 33 05.05 -00 35 25.5          20.1 RtEV020474
     K16UA7C HC2016 11 02.14952 00 16 15.16 -06 08 40.0          19.9 VoEV020691
     K16UA7C HC2016 11 02.15284 00 16 12.13 -06 09 33.3          20.2 VoEV020691
     K16UA7C HC2016 11 02.15619 00 16 09.26 -06 10 23.2          20.3 VoEV020691
     K16UA7C  C2016 11 02.16624 00 16 00.00 -06 12 59.2          19.2 RoEV020926
     K16UA7C  C2016 11 02.16850 00 15 57.96 -06 13 34.7          19.2 RoEV020926
     K16UA7C  C2016 11 02.17076 00 15 55.92 -06 14 10.2          19.3 RoEV020926
     K16UA7C  C2016 11 02.19351 00 15 35.17 -06 20 12.7          20.0 VqEV020I52
     K16UA7C  C2016 11 02.19393 00 15 34.80 -06 20 18.7          19.6 VqEV020I52
     K16UA7C  C2016 11 02.19614 00 15 32.80 -06 20 54.2          19.7 VqEV020I52
     K16UA7C  C2016 11 02.19835 00 15 30.79 -06 21 28.8          19.9 VqEV020I52
     K16UA7C KC2016 11 02.92116 00 03 46.87 -10 05 01.5          19.3 GUEV020204
     K16UA7C KC2016 11 02.92638 00 03 40.48 -10 06 53.2                UEV020204
     K16UA7C KC2016 11 02.93193 00 03 33.67 -10 08 53.1                UEV020204
     K16UA7C  C2016 11 03.09751 00 00 33.15 -11 09 53.1          18.4 RoEV020926
     K16UA7C  C2016 11 03.09920 00 00 30.88 -11 10 32.8          18.3 RoEV020926
     K16UA7C  C2016 11 03.10090 00 00 28.58 -11 11 13.0          18.4 RoEV020926
     K16UA7C KC2016 11 03.41207 23 53 16.95 -13 14 23.6          19.8 RtEV020474
     K16UA7C KC2016 11 03.41307 23 53 15.35 -13 14 50.3          19.8 RtEV020474
     K16UA7C KC2016 11 03.41408 23 53 13.79 -13 15 17.7          19.5 RtEV020474
     K16UA7C KC2016 11 03.41508 23 53 12.17 -13 15 44.7          19.2 RtEV020474
     K16UA7C KC2016 11 03.41608 23 53 10.57 -13 16 11.4          18.8 RtEV020474
     K16UA7C KC2016 11 03.84802 23 41 13.96 -17 00 04.2          19.5 VqEV020I93
     K16UA7C KC2016 11 03.85328 23 41 03.31 -17 03 00.2          18.9 VqEV020I93
     K16UA7C KC2016 11 03.85785 23 40 54.07 -17 05 31.6          18.8 VqEV020I93
 
Observer details:
204 Schiaparelli Observatory.  Observer L. Buzzi.  0.60-m f/4.64 reflector
    + CCD.
474 Mount John Observatory, Lake Tekapo.  Observers A. C. Gilmore,
    P. M. Kilmartin.  Measurer P. M. Kilmartin.  1.0-m f/7.7 reflector + CCD.
691 Steward Observatory, Kitt Peak.  Observer M. T. Read.  0.9-m f/3 reflector
    + CCD.
926 Tenagra II Observatory.  Observers M. Schwartz, P. R. Holvorcem.  Measurer
    M. Schwartz.  0.81-m f/7 Ritchey-Chretien + CCD.
G96 Mt. Lemmon Survey.  Observer D. C. Fuls.  Measurers E. J. Christensen,
    D. C. Fuls, A. R. Gibbs, A. D. Grauer, J. A. Johnson, R. A. Kowalski,
    S. M. Larson, G. J. Leonard, R. G. Matheny, R. L. Seaman, F. C. Shelly.
    1.5-m reflector + 10K CCD.
I52 Steward Observatory, Mt. Lemmon Station.  Observers J. A. Johnson,
    G. J. Leonard.  Measurers E. J. Christensen, D. C. Fuls, A. R. Gibbs,
    A. D. Grauer, J. A. Johnson, R. A. Kowalski, S. M. Larson, G. J. Leonard,
    R. G. Matheny, R. L. Seaman, F. C. Shelly.  1.0-m reflector + CCD.
I93 St Pardon de Conques.  Observer F. Losse.  0.40-m f/3.7 reflector + CCD.
 
Orbital elements:
2016 UC107                                               Earth MOID = 0.0063 AU
Epoch 2016 July 31.0 TT = JDT 2457600.5                 MPC
M 312.42685              (2000.0)            P               Q
n   0.34795336     Peri.  247.49183     -0.16771728     -0.98565076
a   2.0019598      Node   212.18162     +0.91713139     -0.14890652
e   0.5882132      Incl.    2.05143     +0.36158115     -0.07949480
P   2.83           H   25.7           G   0.15           U   6
Residuals in seconds of arc
161030 G96  0.3+  0.2-    161031 474  0.2+  0.1-    161102 204  0.6+  0.5+
161030 G96  0.2+  0.0     161031 474  0.1+  0.2+    161102 204  0.8+  0.0
161030 G96  0.6+  0.4+    161031 474  0.2+  0.2-    161103 926  0.1-  0.5+
161030 G96  0.4+  0.1-    161031 474  0.0   0.1+    161103 926  0.1-  0.5+
161030 G96  0.1-  0.1+    161102 691  0.2-  0.2-    161103 926  0.3-  0.2+
161030 G96  0.2+  0.3+    161102 691  1.2-  1.7-    161103 474  0.5+  0.2-
161030 G96  0.2-  0.3-    161102 691  0.8+  0.8+    161103 474  0.2+  0.0
161030 G96  0.0   0.4+    161102 926  0.1-  0.3+    161103 474  0.7+  0.3-
161030 I52  0.0   0.1-    161102 926  0.1-  0.3+    161103 474  0.2+  0.4-
161030 I52  0.1-  0.0     161102 926  0.1-  0.3+    161103 474  0.1-  0.3-
161030 I52  0.3+  0.0     161102 I52  0.3-  0.1+    161103 I93  0.5+  0.1-
161030 I52  0.2-  0.0     161102 I52  0.1-  0.8+    161103 I93  0.0   0.8-
161030 474  0.4-  0.3-    161102 I52  0.2+  0.3+    161103 I93  0.2+  0.3+
161030 474  0.2+  0.3-    161102 I52  0.4+  0.7+
161030 474  1.0+  0.0     161102 204  0.4+  0.2+

Ephemeris:
2016 UC107               a,e,i = 2.00, 0.59, 2                   q = 0.8244
Date    TT    R. A. (2000) Decl.     Delta      r     Elong.  Phase     V
2016 10 05    01 13 18.7 +11 09 17   0.2587  1.2558   170.3     7.7    23.8
...
2016 10 20    01 04 18.3 +08 58 20   0.1310  1.1254   171.2     7.8    22.1
...
2016 10 28    00 49 34.0 +04 38 01   0.06991 1.0589   158.4    20.2    21.1
...
2016 11 03    00 02 21.9 -10 29 10   0.02753 1.0115   134.7    44.2    19.6
2016 11 04    23 36 12.0 -18 20 51   0.02147 1.0039   124.1    54.9    19.4
2016 11 05    22 46 12.1 -30 54 02   0.01656 0.9964   106.8    72.3    19.3
...
2016 11 11    14 17 33.6 -29 35 03   0.03822 0.9534    16.4   163.0    30.7
...
2016 11 19    13 40 55.7 -19 48 30   0.09733 0.9031    27.6   149.6    28.8
...
2016 12 04    13 40 54.7 -16 53 24   0.2177  0.8392    42.9   127.0    27.4

A. U. Tomatic                (C) Copyright 2016 MPC           M.P.E.C. 2016-V20




More information about the Iaude mailing list